{"data":{"norad_id":58424,"epoch":"2026-05-24T21:47:06.177696Z","epoch_age_seconds":82329,"freshness":"FRESH","line1":"1 58424U 23180Y   26144.90771039  .00000793  00000+0  38356-4 0  9997","line2":"2 58424  43.0034 341.9231 0000990 273.3322  86.7417 15.27576834139286","mean_motion":15.27576834,"eccentricity":9.9e-5,"inclination_deg":43.0034,"raan_deg":341.9231,"arg_perigee_deg":273.3322,"mean_anomaly_deg":86.7417,"bstar":3.8356e-5,"rev_number":13928,"period_min":94.266944087475,"perigee_km":482.37931783695,"apogee_km":483.73783456103,"semimajor_km":6861.195576199,"source":"CELESTRAK","updated_at":"2026-05-25T13:38:18.621419Z"}}